Back to catalog

LEMUR-2 KUTAR

AliveWeatherSSO
NORAD 67394·PAYLOAD·🇺🇸 United States

Launched Jan 11, 2026 from Vandenberg Space Force Base

Loading…

Next Passes (next 24 hours)

TLE

FreshSource: Space-Track

Epoch: Sep 14, 2026, 10:38 UTC

1 67394U 26004AH  26257.44370401  .00003616  00000-0  17066-3 0  9995
2 67394  97.4557 255.4228 0009529  35.4148 324.7718 15.20057216 37322

Track LEMUR-2 KUTAR in real time with AllMySat

Download on the App Store